1529542800.01,23479,20.19,74580.0,5.97,-18.79,-19.31,0,*70
1529542801.22,23480,20.19,74584.0,5.99,-18.99,-19.47,0,*77
1529542802.47,23481,20.19,74584.0,5.97,-19.03,-19.41,0,*7C
1529542803.7,23482,20.19,74586.8,5.99,-18.89,-19.47,0,*74
1529542804.96,23483,20.19,74586.3,5.97,-19.17,-19.65,0,*7D
1529542806.2,23484,20.19,74586.3,5.99,-19.07,-19.57,0,*74
1529542807.43,23485,20.19,74582.0,5.99,-18.73,-19.27,0,*70
1529542808.69,23486,20.19,74582.3,5.97,-18.73,-19.31,0,*7A
1529542809.94,23487,20.19,74584.0,6.01,-18.65,-19.23,0,*73
1529542811.17,23488,20.19,74584.5,5.99,-18.69,-19.27,0,*76
1529542812.41,23489,20.19,74586.8,5.99,-18.99,-19.61,0,*7A
1529542813.63,23490,20.19,74580.5,5.99,-18.89,-19.51,0,*70
1529542814.84,23491,20.19,74582.3,5.99,-18.99,-19.51,0,*70
1529542816.07,23492,20.19,74582.3,5.99,-18.89,-19.47,0,*75
1529542817.29,23493,20.19,74588.8,5.99,-18.89,-19.47,0,*74
1529542818.52,23494,20.19,74584.8,5.99,-18.89,-19.37,0,*74
1529542819.73,23495,20.19,74584.5,5.99,-18.99,-19.51,0,*74
1529542820.93,23496,20.19,74584.5,5.99,-19.03,-19.71,0,*77
1529542822.19,23497,20.19,74584.8,5.97,-19.07,-19.65,0,*79
1529542823.42,23498,20.19,74584.3,5.99,-18.73,-19.31,0,*7B
1529542824.65,23499,20.19,74580.0,5.99,-18.73,-19.27,0,*7D
1529542825.93,23500,20.19,74580.8,5.97,-18.89,-19.41,0,*77
1529542827.15,23501,20.19,74584.8,5.99,-18.89,-19.47,0,*7E
1529542828.38,23502,20.19,74586.0,5.99,-18.89,-19.47,0,*7D
1529542829.61,23503,20.19,74586.3,5.99,-18.83,-19.31,0,*77
1529542830.85,23504,20.19,74580.8,5.97,-18.79,-19.37,0,*7D
1529542832.08,23505,20.19,74586.0,5.99,-18.73,-19.31,0,*7E
1529542833.31,23506,20.19,74582.5,5.97,-18.79,-19.37,0,*7F
1529542834.56,23507,20.19,74582.5,6.01,-18.55,-18.99,0,*79
1529542835.79,23508,20.19,74584.3,6.01,-18.65,-19.13,0,*76
1529542837.0,23509,20.19,74582.8,6.03,-18.65,-19.13,0,*75
1529542838.25,23510,20.19,74580.8,6.01,-18.69,-19.23,0,*70
1529542839.5,23511,20.19,74584.0,6.01,-18.69,-19.23,0,*71
1529542840.76,23512,20.19,74582.8,6.01,-18.69,-19.23,0,*72
1529542842.01,23513,20.19,74584.8,6.01,-18.79,-19.23,0,*72
1529542843.27,23514,20.19,74582.3,6.01,-18.69,-19.23,0,*74
1529542844.52,23515,20.19,74582.0,6.01,-18.69,-19.27,0,*71
1529542845.78,23516,20.19,74580.0,6.01,-18.69,-19.23,0,*76
1529542847.04,23517,20.19,74580.8,6.01,-18.69,-19.27,0,*73
1529542848.29,23518,20.19,74580.0,6.05,-18.73,-19.27,0,*73
1529542849.55,23519,20.19,74580.5,6.01,-18.69,-19.23,0,*79
1529542850.8,23520,20.19,74582.5,6.01,-18.55,-19.13,0,*7F
1529542852.06,23521,20.19,74580.8,6.03,-18.35,-18.93,0,*73
1529542853.29,23522,20.19,74582.8,6.03,-18.41,-18.93,0,*73
1529542854.55,23523,20.19,74584.8,6.03,-18.35,-18.93,0,*71
1529542855.75,23524,20.19,74584.0,6.03,-18.49,-18.99,0,*77
1529542856.97,23525,20.19,74582.0,6.03,-18.55,-19.07,0,*7D
1529542858.25,23526,20.19,74584.3,6.05,-18.59,-18.93,0,*78
1529542859.52,23527,20.19,74584.0,6.05,-18.35,-18.89,0,*78
1529542860.8,23528,20.19,74586.8,6.05,-18.35,-18.93,0,*7C
1529542862.06,23529,20.19,74578.8,6.05,-18.49,-18.93,0,*76
1529542863.26,23530,20.19,74580.5,6.07,-18.41,-19.03,0,*7C
1529542864.48,23531,20.19,74580.0,6.05,-18.49,-19.07,0,*73
1529542865.73,23532,20.19,74580.8,6.05,-18.59,-19.07,0,*71
1529542866.97,23533,20.19,74582.5,6.05,-18.59,-19.07,0,*70
1529542868.21,23534,20.19,74586.0,6.07,-18.55,-19.13,0,*7C
1529542869.44,23535,20.19,74590.3,6.07,-18.65,-19.23,0,*7D
1529542870.67,23536,20.19,74584.0,6.07,-18.83,-19.31,0,*75
1529542871.9,23537,20.19,74576.5,6.07,-18.83,-19.23,0,*77
1529542873.14,23538,20.19,74584.8,6.09,-18.73,-19.17,0,*7E
1529542874.37,23539,20.19,74582.8,6.09,-18.69,-19.17,0,*74
1529542875.61,23540,20.19,74584.0,6.09,-18.73,-19.17,0,*71
1529542876.84,23541,20.19,74584.5,6.07,-18.69,-19.23,0,*72
1529542878.11,23542,20.19,74586.8,6.09,-19.13,-19.61,0,*75
1529542879.35,23543,20.19,74588.5,6.07,-19.17,-19.65,0,*7A
1529542880.61,23544,20.19,74588.5,6.09,-19.17,-19.65,0,*73
1529542881.82,23545,20.19,74588.0,6.07,-18.99,-19.37,0,*7C
1529542883.04,23546,20.19,74588.3,6.07,-18.99,-19.37,0,*7F
1529542884.25,23547,20.19,74586.8,6.07,-18.73,-19.17,0,*78
1529542885.47,23548,20.19,74586.3,6.07,-18.55,-19.03,0,*76
1529542886.7,23549,20.19,74586.8,6.07,-18.59,-18.99,0,*79
1529542887.95,23550,20.19,74582.3,6.09,-18.55,-18.99,0,*73
1529542889.21,23551,20.19,74576.5,6.09,-18.59,-19.13,0,*7D
1529542890.46,23552,20.19,74580.8,6.09,-18.59,-19.03,0,*7F
1529542891.71,23553,20.19,74584.5,6.09,-18.59,-19.03,0,*7E
1529542892.95,23554,20.19,74576.3,6.13,-18.55,-18.99,0,*7C
1529542894.2,23555,20.19,74572.5,6.09,-18.55,-18.99,0,*76
1529542895.48,23556,20.19,74574.0,6.09,-18.55,-18.93,0,*7F
1529542896.73,23557,20.19,74570.5,6.13,-18.55,-18.99,0,*7F
1529542897.97,23558,20.19,74574.3,6.13,-18.55,-18.99,0,*70
1529542899.19,23559,20.19,74568.8,6.13,-18.65,-18.99,0,*72
1529542900.46,23560,20.19,74570.3,6.13,-18.55,-18.93,0,*71
1529542901.71,23561,20.19,74570.8,6.13,-18.55,-18.99,0,*7A
1529542902.95,23562,20.19,74572.0,6.13,-18.55,-18.99,0,*79
1529542904.17,23563,20.19,74574.8,6.13,-18.69,-18.99,0,*77
1529542905.38,23564,20.19,74572.8,6.15,-18.79,-19.17,0,*70
1529542906.59,23565,20.19,74578.5,6.15,-18.79,-19.17,0,*71
1529542907.81,23566,20.19,74576.0,6.17,-18.65,-19.03,0,*78
1529542909.02,23567,20.19,74576.5,6.15,-18.79,-19.13,0,*77
1529542910.21,23568,20.19,74582.0,6.15,-18.69,-19.07,0,*7C
1529542911.42,23569,20.19,74582.0,6.15,-18.69,-19.13,0,*78
1529542912.61,23570,20.19,74576.8,6.15,-18.65,-19.07,0,*79
1529542913.87,23571,20.19,74578.0,6.17,-18.89,-19.37,0,*7B
1529542915.1,23572,20.19,74584.0,6.15,-18.99,-19.41,0,*7A
1529542916.33,23573,20.19,74580.5,6.15,-18.99,-19.31,0,*7C
1529542917.53,23574,20.19,74582.0,6.15,-18.69,-19.17,0,*70
1529542918.76,23575,20.19,74582.8,6.17,-18.73,-19.13,0,*7C
1529542920.02,23576,20.19,74582.3,6.15,-18.93,-19.41,0,*74
1529542921.27,23577,20.19,74582.3,6.15,-19.13,-19.57,0,*7B
1529542922.5,23578,20.19,74582.8,6.15,-19.07,-19.57,0,*71
1529542923.7,23579,20.19,74580.8,6.15,-19.07,-19.47,0,*71
1529542924.94,23580,20.19,74582.5,6.15,-18.99,-19.41,0,*77
1529542926.17,23581,20.19,74582.0,6.15,-19.07,-19.41,0,*70
1529542927.37,23582,20.19,74586.8,6.15,-19.07,-19.47,0,*75
1529542928.6,23583,20.19,74584.8,6.15,-18.99,-19.31,0,*73
1529542929.81,23584,20.19,74584.8,6.15,-19.13,-19.47,0,*76
1529542931.01,23585,20.19,74586.5,6.15,-19.07,-19.47,0,*72
1529542932.24,23586,20.19,74582.8,6.15,-18.83,-19.31,0,*7D
1529542933.47,23587,20.19,74590.0,6.15,-18.83,-19.31,0,*7C
1529542934.72,23588,20.19,74586.0,6.15,-18.55,-18.93,0,*71
1529542935.98,23589,20.19,74586.0,6.15,-18.93,-19.27,0,*74
1529542937.2,23590,20.19,74582.5,6.15,-18.55,-18.99,0,*72
1529542938.4,23591,20.19,74588.8,6.15,-18.41,-18.69,0,*79
1529542939.6,23592,20.19,74584.8,6.15,-18.25,-18.65,0,*74
1529542940.82,23593,20.19,74586.3,6.15,-18.21,-18.59,0,*7E
1529542942.05,23594,20.19,74584.3,6.17,-18.21,-18.49,0,*7A
1529542943.28,23595,20.19,74590.8,6.17,-18.17,-18.49,0,*7E
1529542944.57,23596,20.19,74586.5,6.17,-17.97,-18.31,0,*75
1529542945.82,23597,20.19,74592.5,6.17,-18.01,-18.45,0,*77
1529542947.05,23598,20.19,74590.8,6.19,-18.17,-18.55,0,*70
1529542948.25,23599,20.19,74586.5,6.19,-18.25,-18.69,0,*7F
1529542949.48,23600,20.19,74580.8,6.19,-18.41,-18.89,0,*70
1529542950.7,23601,20.19,74578.0,6.21,-18.41,-18.89,0,*7A
1529542951.93,23602,20.19,74572.0,6.19,-18.45,-18.89,0,*76
1529542953.16,23603,20.19,74576.3,6.21,-18.31,-18.73,0,*7A
1529542954.39,23604,20.19,74576.3,6.21,-18.31,-18.69,0,*76
1529542955.62,23605,20.19,74576.0,6.21,-18.41,-18.89,0,*7E
1529542956.84,23606,20.19,74574.3,6.21,-18.45,-18.89,0,*79
1529542958.06,23607,20.19,74574.3,6.21,-18.55,-18.99,0,*78
1529542959.29,23608,20.19,74572.5,6.19,-18.45,-18.89,0,*7C
1529542960.48,23609,20.19,74572.0,6.21,-18.45,-18.83,0,*7C
1529542961.73,23610,20.19,74574.0,6.21,-18.55,-18.89,0,*7F
1529542962.95,23611,20.19,74570.8,6.21,-18.45,-18.89,0,*7F
1529542964.18,23612,20.19,74572.3,6.25,-18.49,-18.93,0,*7F
1529542965.4,23613,20.19,74578.3,6.23,-18.49,-18.83,0,*79
1529542966.66,23614,20.19,74576.8,6.23,-18.41,-18.93,0,*77
1529542967.89,23615,20.19,74576.5,6.25,-18.55,-18.99,0,*7F
1529542969.11,23616,20.19,74578.3,6.23,-18.65,-18.99,0,*79
1529542970.39,23617,20.19,74580.0,6.23,-18.55,-18.93,0,*71
1529542971.64,23618,20.19,74576.8,6.23,-18.49,-18.93,0,*73
1529542972.87,23619,20.19,74580.0,6.23,-18.41,-18.83,0,*7B
1529542974.08,23620,20.19,74576.3,6.25,-18.41,-18.79,0,*72
1529542975.33,23621,20.19,74578.0,6.23,-18.35,-18.79,0,*76
1529542976.55,23622,20.19,74580.0,6.23,-18.41,-18.83,0,*73
1529542977.75,23623,20.19,74580.8,6.25,-18.49,-18.83,0,*7C
1529542978.99,23624,20.19,74580.5,6.23,-18.69,-19.13,0,*77
1529542980.2,23625,20.19,74580.8,6.25,-18.69,-19.13,0,*70
1529542981.44,23626,20.19,74580.8,6.23,-18.79,-19.17,0,*70
1529542982.64,23627,20.19,74576.5,6.25,-18.65,-19.03,0,*7F
1529542983.84,23628,20.19,74578.0,6.25,-18.65,-19.03,0,*70
1529542985.04,23629,20.19,74580.0,6.25,-18.65,-18.99,0,*73
1529542986.24,23630,20.19,74582.8,6.25,-18.41,-18.83,0,*76
1529542987.45,23631,20.19,74582.3,6.25,-18.41,-18.83,0,*77
1529542988.68,23632,20.19,74578.0,6.25,-18.49,-18.93,0,*7D
1529542989.91,23633,20.19,74580.0,6.25,-18.49,-18.93,0,*7C
1529542991.11,23634,20.19,74580.5,6.25,-18.41,-18.79,0,*77
1529542992.32,23635,20.19,74580.3,6.25,-18.41,-18.83,0,*73
1529542993.55,23636,20.19,74576.5,6.25,-18.49,-18.93,0,*79
1529542994.75,23637,20.19,74580.0,6.29,-18.73,-19.13,0,*74
1529542995.97,23638,20.19,74582.3,6.27,-18.65,-19.07,0,*77
1529542997.23,23639,20.19,74582.3,6.27,-18.79,-19.27,0,*79
1529542998.49,23640,20.19,74588.8,6.27,-18.79,-19.23,0,*73
1529542999.74,23641,20.19,74586.5,6.27,-18.89,-19.13,0,*7E
1529543000.97,23642,20.19,74586.5,6.27,-18.73,-19.13,0,*78
1529543002.2,23643,20.19,74584.5,6.27,-18.65,-18.99,0,*7D
1529543003.42,23644,20.19,74580.8,6.27,-18.65,-19.07,0,*7C
1529543004.65,23645,20.19,74586.5,6.27,-18.73,-19.07,0,*7A
1529543005.87,23646,20.19,74584.5,6.27,-18.73,-19.07,0,*79
1529543007.09,23647,20.19,74584.3,6.27,-18.65,-18.99,0,*79
1529543008.32,23648,20.19,74578.3,6.27,-18.49,-18.99,0,*78
1529543009.54,23649,20.19,74582.0,6.27,-18.65,-19.07,0,*71
1529543010.76,23650,20.19,74586.3,6.27,-18.73,-19.07,0,*7E
1529543011.99,23651,20.19,74584.0,6.27,-18.73,-19.07,0,*7F
1529543013.25,23652,20.19,74584.0,6.25,-18.93,-19.27,0,*72
1529543014.46,23653,20.19,74580.8,6.25,-18.65,-19.13,0,*7D
1529543015.67,23654,20.19,74586.3,6.25,-18.79,-19.13,0,*77
1529543016.88,23655,20.19,74586.3,6.29,-18.59,-19.07,0,*7D
1529543018.12,23656,20.19,74586.8,6.27,-18.73,-19.13,0,*7D
1529543019.34,23657,20.19,74588.3,6.29,-18.73,-19.27,0,*75
1529543020.57,23658,20.19,74586.5,6.29,-18.79,-19.27,0,*70
1529543021.82,23659,20.19,74584.0,6.27,-18.89,-19.13,0,*77
1529543023.05,23660,20.19,74582.0,6.27,-18.65,-19.07,0,*7A
1529543024.25,23661,20.19,74586.5,6.29,-18.73,-19.13,0,*77
1529543025.48,23662,20.19,74584.5,6.25,-18.99,-19.31,0,*7C
1529543026.72,23663,20.19,74584.8,6.25,-18.83,-19.27,0,*71
1529543027.95,23664,20.19,74586.5,6.25,-18.83,-19.27,0,*76
1529543029.18,23665,20.13,74582.3,6.25,-18.83,-19.27,0,*77
1529543030.44,23666,20.19,74584.8,6.27,-18.93,-19.37,0,*76
1529543031.66,23667,20.19,74586.0,6.25,-19.13,-19.47,0,*7B
1529543032.89,23668,20.19,74588.5,6.25,-18.99,-19.41,0,*71
1529543034.15,23669,20.19,74588.8,6.25,-18.93,-19.31,0,*7D
1529543035.41,23670,20.19,74586.8,6.27,-18.89,-19.37,0,*7A
1529543036.67,23671,20.19,74588.3,6.23,-18.99,-19.41,0,*7F
1529543037.95,23672,20.19,74582.8,6.27,-18.93,-19.27,0,*72
1529543039.21,23673,20.19,74584.0,6.27,-18.93,-19.37,0,*72
1529543040.45,23674,20.19,74582.0,6.25,-18.99,-19.57,0,*7B
1529543041.7,23675,20.19,74586.5,6.25,-19.13,-19.57,0,*79
1529543042.95,23676,20.19,74586.0,6.25,-19.13,-19.57,0,*7A
1529543044.18,23677,20.19,74588.8,6.23,-18.99,-19.47,0,*7F
1529543045.44,23678,20.19,74590.0,6.23,-19.03,-19.57,0,*73
1529543046.68,23679,20.19,74590.3,6.25,-19.03,-19.57,0,*74
1529543047.93,23680,20.19,74586.8,6.25,-19.17,-19.57,0,*77
1529543049.16,23681,20.19,74586.3,6.23,-19.17,-19.71,0,*74
1529543050.4,23682,20.19,74590.3,6.23,-19.13,-19.71,0,*73
1529543051.66,23683,20.19,74588.0,6.21,-19.23,-19.65,0,*76
1529543052.89,23684,20.19,74588.0,6.23,-19.17,-19.71,0,*71
1529543054.12,23685,20.19,74590.0,6.21,-19.23,-19.75,0,*71
1529543055.38,23686,20.19,74586.8,6.21,-19.31,-19.65,0,*70
1529543056.62,23687,20.19,74586.8,6.25,-19.13,-19.61,0,*71
1529543057.85,23688,20.19,74590.5,6.21,-19.07,-19.61,0,*7F
1529543059.11,23689,20.19,74586.3,6.19,-19.23,-19.65,0,*77
1529543060.32,23690,20.19,74590.0,6.21,-19.07,-19.51,0,*75
1529543061.52,23691,20.19,74586.5,6.19,-19.07,-19.51,0,*7F
1529543062.72,23692,20.19,74588.8,6.21,-18.99,-19.47,0,*76
1529543063.95,23693,20.19,74586.3,6.21,-18.89,-19.37,0,*71
1529543065.15,23694,20.19,74590.3,6.21,-19.03,-19.47,0,*72
1529543066.35,23695,20.19,74588.8,6.21,-18.99,-19.37,0,*76
1529543067.64,23696,20.19,74592.0,6.23,-18.93,-19.41,0,*7C
1529543068.9,23697,20.19,74592.0,6.23,-18.99,-19.41,0,*77
1529543070.1,23698,20.19,74590.5,6.21,-18.99,-19.47,0,*7C
1529543071.35,23699,20.19,74586.0,6.19,-18.89,-19.31,0,*76
1529543072.55,23700,20.19,74584.3,6.21,-18.65,-19.13,0,*7E
1529543073.76,23701,20.19,74586.0,6.19,-18.73,-19.17,0,*77
1529543074.98,23702,20.19,74586.0,6.21,-18.59,-19.07,0,*76
1529543076.2,23703,20.19,74586.3,6.21,-18.73,-19.23,0,*79
1529543077.42,23704,20.19,74580.8,6.19,-18.59,-19.07,0,*7B
1529543078.64,23705,20.19,74580.0,6.19,-18.59,-19.07,0,*7A
1529543079.86,23706,20.19,74578.5,6.21,-18.69,-19.23,0,*77
1529543081.11,23707,20.19,74580.0,6.23,-18.55,-19.03,0,*79
1529543082.35,23708,20.19,74578.0,6.23,-18.65,-19.13,0,*74
1529543083.6,23709,20.19,74578.3,6.23,-18.79,-19.27,0,*7F
1529543084.83,23710,20.19,74578.3,6.23,-18.65,-19.03,0,*7C
1529543086.09,23711,20.19,74578.3,6.23,-18.79,-19.27,0,*76
1529543087.3,23712,20.13,74576.3,6.25,-18.65,-19.17,0,*7D
1529543088.52,23713,20.19,74582.5,6.21,-18.73,-19.31,0,*7B
1529543089.75,23714,20.13,74578.5,6.23,-18.65,-19.17,0,*7D
1529543091.01,23715,20.19,74582.0,6.23,-18.69,-19.27,0,*73
1529543092.22,23716,20.19,74582.0,6.21,-18.69,-19.17,0,*71
1529543093.45,23717,20.19,74578.8,6.21,-18.59,-19.17,0,*73
1529543094.67,23718,20.19,74584.3,6.21,-18.83,-19.23,0,*7C
1529543095.93,23719,20.19,74582.8,6.23,-18.79,-19.27,0,*7E
1529543097.18,23720,20.13,74582.3,6.23,-18.55,-19.13,0,*7D
1529543098.42,23721,20.19,74582.0,6.23,-18.65,-19.13,0,*7F
1529543099.67,23722,20.13,74576.0,6.23,-18.79,-19.27,0,*76
1529543100.93,23723,20.19,74578.3,6.23,-18.65,-19.27,0,*7A
1529543102.19,23724,20.19,74578.5,6.23,-18.79,-19.27,0,*70
1529543103.42,23725,20.13,74582.8,6.23,-18.69,-19.13,0,*77
1529543104.66,23726,20.19,74580.8,6.23,-18.65,-19.13,0,*78
1529543105.92,23727,20.19,74582.5,6.23,-18.69,-19.27,0,*72
1529543107.15,23728,20.19,74582.3,6.25,-18.79,-19.27,0,*7A
1529543108.39,23729,20.19,74582.0,6.25,-18.79,-19.31,0,*7C
1529543109.62,23730,20.19,74580.0,6.23,-18.69,-19.17,0,*77
1529543110.85,23731,20.13,74582.0,6.27,-18.79,-19.37,0,*71
1529543112.09,23732,20.13,74578.8,6.25,-18.93,-19.47,0,*73
1529543113.35,23733,20.19,74580.0,6.23,-19.03,-19.57,0,*7D
1529543114.59,23734,20.19,74578.5,6.23,-19.13,-19.71,0,*7F
1529543115.85,23735,20.13,74576.0,6.23,-19.17,-19.85,0,*71
1529543117.08,23736,20.13,74576.0,6.21,-19.31,-19.91,0,*71
1529543118.34,23737,20.19,74580.3,6.21,-19.23,-19.81,0,*72
1529543119.55,23738,20.19,74576.5,6.25,-19.17,-19.75,0,*75
1529543120.78,23739,20.19,74580.0,6.21,-19.17,-19.65,0,*71
1529543122.01,23740,20.19,74582.3,6.21,-19.23,-19.75,0,*79
1529543123.24,23741,20.19,74580.3,6.21,-19.23,-19.91,0,*72
1529543124.51,23742,20.19,74582.8,6.23,-19.27,-19.75,0,*7D
1529543125.74,23743,20.19,74578.3,6.21,-19.31,-19.91,0,*73
1529543127.0,23744,20.19,74582.8,6.21,-19.31,-19.81,0,*75
1529543128.22,23745,20.13,74578.0,6.21,-19.07,-19.65,0,*7B
1529543129.46,23746,20.19,74582.3,6.19,-19.07,-19.65,0,*73
1529543130.69,23747,20.19,74582.5,6.19,-19.03,-19.65,0,*76
1529543131.92,23748,20.19,74580.3,6.19,-19.07,-19.61,0,*79
1529543133.16,23749,20.19,74582.8,6.19,-19.23,-19.75,0,*7B
1529543134.42,23750,20.19,74582.0,6.19,-19.23,-19.81,0,*78
1529543135.65,23751,20.19,74582.3,6.21,-19.17,-19.81,0,*75
1529543136.88,23752,20.19,74584.5,6.19,-19.23,-19.75,0,*71
1529543138.09,23753,20.13,74582.0,6.19,-19.07,-19.75,0,*76
1529543139.32,23754,20.19,74584.0,6.19,-19.07,-19.61,0,*74
1529543140.56,23755,20.19,74584.8,6.19,-19.23,-19.75,0,*76
1529543141.82,23756,20.19,74582.0,6.19,-19.23,-19.81,0,*7E
1529543143.07,23757,20.19,74584.8,6.17,-19.37,-19.85,0,*70
1529543144.31,23758,20.13,74580.5,6.17,-19.37,-19.95,0,*7E
1529543145.55,23759,20.19,74582.8,6.17,-19.37,-19.95,0,*7F
1529543146.81,23760,20.19,74586.3,6.17,-19.37,-19.85,0,*74
1529543148.04,23761,20.13,74584.5,6.15,-19.41,-19.91,0,*73
1529543149.27,23762,20.19,74584.0,6.15,-19.41,-19.91,0,*70
1529543150.47,23763,20.13,74584.8,6.15,-19.47,-19.99,0,*7F
1529543151.7,23764,20.19,74584.3,6.15,-19.41,-19.99,0,*7E
1529543152.96,23765,20.19,74584.5,6.19,-19.31,-19.81,0,*7D
1529543154.22,23766,20.19,74584.8,6.17,-19.37,-19.85,0,*72
1529543155.45,23767,20.13,74582.8,6.15,-19.31,-19.91,0,*72
1529543156.7,23768,20.13,74582.3,6.15,-19.31,-19.85,0,*78
1529543157.94,23769,20.19,74584.5,6.09,-19.37,-19.91,0,*77
1529543159.19,23770,20.19,74580.5,6.13,-19.41,-19.91,0,*75
1529543160.45,23771,20.19,74582.0,6.13,-19.41,-19.91,0,*74
1529543161.7,23772,20.13,74580.5,6.13,-19.41,-19.99,0,*7F
1529543162.92,23773,20.13,74580.0,6.15,-19.41,-19.99,0,*78
1529543164.15,23774,20.19,74584.5,6.13,-19.47,-19.91,0,*77
1529543165.41,23775,20.19,74584.5,6.17,-19.37,-19.85,0,*70
1529543166.66,23776,20.13,74584.3,6.13,-19.41,-19.91,0,*73
1529543167.9,23777,20.13,74584.5,6.09,-19.51,-19.95,0,*7C
1529543169.1,23778,20.19,74586.5,6.15,-19.47,-19.91,0,*7D
1529543170.36,23779,20.19,74584.0,6.13,-19.31,-19.91,0,*7B
1529543171.6,23780,20.13,74586.0,6.09,-19.37,-19.95,0,*74
1529543172.84,23781,20.19,74584.8,6.09,-19.51,-20.05,0,*76
1529543174.08,23782,20.13,74586.5,6.09,-19.47,-20.05,0,*72
1529543175.31,23783,20.13,74586.0,6.09,-19.47,-19.95,0,*70
1529543176.59,23784,20.19,74584.3,6.13,-19.31,-19.85,0,*7C
1529543177.88,23785,20.13,74584.0,6.13,-19.27,-19.85,0,*7A
1529543179.09,23786,20.13,74582.0,6.07,-19.37,-19.91,0,*78
1529543180.34,23787,20.13,74586.8,6.09,-19.37,-19.95,0,*73
1529543181.61,23788,20.19,74586.8,6.05,-19.41,-19.85,0,*70
1529543182.83,23789,20.19,74588.3,6.07,-19.37,-19.91,0,*77
1529543184.06,23790,20.19,74588.8,6.05,-19.51,-19.95,0,*79
1529543185.28,23791,20.13,74584.8,6.07,-19.47,-20.05,0,*7E
1529543186.57,23792,20.13,74586.3,6.05,-19.27,-19.85,0,*7B
1529543187.81,23793,20.13,74584.0,6.07,-19.31,-19.91,0,*7A
1529543189.06,23794,20.13,74584.3,6.05,-19.41,-19.95,0,*7C
1529543190.32,23795,20.19,74588.8,6.05,-19.41,-19.95,0,*7D
1529543191.58,23796,20.13,74584.8,6.05,-19.41,-19.95,0,*7E
1529543192.86,23797,20.13,74586.8,6.05,-19.41,-19.85,0,*7E
1529543194.11,23798,20.13,74586.3,6.05,-19.41,-19.95,0,*70
1529543195.32,23799,20.13,74590.3,6.03,-19.47,-19.99,0,*7D
1529543196.53,23800,20.19,74584.8,6.03,-19.47,-19.99,0,*72
1529543197.74,23801,20.13,74586.5,6.03,-19.47,-19.99,0,*73
1529543198.95,23802,20.19,74586.8,6.03,-19.47,-20.05,0,*7F
1529543200.15,23803,20.13,74582.8,6.03,-19.47,-20.05,0,*7E
1529543201.36,23804,20.19,74584.0,6.03,-19.47,-20.05,0,*79
1529543202.57,23805,20.13,74582.3,6.03,-19.47,-20.05,0,*78
1529543203.78,23806,20.13,74578.0,6.03,-19.47,-19.99,0,*74
1529543205.04,23807,20.19,74586.0,6.01,-19.57,-20.05,0,*79
1529543206.3,23808,20.13,74582.0,6.01,-19.57,-20.05,0,*76
1529543207.53,23809,20.13,74580.3,6.01,-19.47,-20.05,0,*76
1529543208.74,23810,20.19,74582.0,6.03,-19.47,-19.99,0,*73
1529543209.95,23811,20.13,74578.0,5.99,-19.51,-20.05,0,*7A
1529543211.17,23812,20.13,74582.8,5.99,-19.51,-20.05,0,*79
1529543212.44,23813,20.13,74580.5,6.01,-19.41,-19.85,0,*79
1529543213.65,23814,20.13,74582.3,5.99,-19.47,-19.91,0,*7F
1529543214.91,23815,20.13,74584.0,6.01,-19.31,-19.75,0,*77
1529543216.2,23816,20.13,74584.3,6.01,-19.27,-19.85,0,*7C
1529543217.44,23817,20.13,74582.3,5.97,-19.51,-19.95,0,*71
1529543218.7,23818,20.13,74580.0,5.99,-19.31,-19.65,0,*79
1529543219.94,23819,20.13,74580.5,5.99,-19.13,-19.61,0,*7C
1529543221.14,23820,20.13,74580.5,5.99,-19.03,-19.51,0,*74
1529543222.35,23821,20.13,74580.5,5.99,-18.99,-19.37,0,*77
1529543223.64,23822,20.13,74576.0,6.01,-18.93,-19.41,0,*7D
1529543224.89,23823,20.13,74576.5,6.01,-18.83,-19.27,0,*7D
1529543226.15,23824,20.13,74580.0,6.01,-18.79,-19.23,0,*7B
1529543227.4,23825,20.19,74584.3,6.01,-19.07,-19.41,0,*76
1529543228.69,23826,20.13,74578.8,6.01,-19.23,-19.57,0,*74
1529543229.96,23827,20.13,74582.0,6.01,-19.13,-19.57,0,*76
1529543231.2,23828,20.13,74580.5,6.01,-18.99,-19.47,0,*7B
1529543232.42,23829,20.13,74580.0,6.01,-19.07,-19.47,0,*7C
1529543233.66,23830,20.19,74584.0,6.01,-19.07,-19.47,0,*74
1529543234.94,23831,20.13,74580.5,6.01,-18.93,-19.41,0,*7F
1529543236.2,23832,20.13,74582.5,6.01,-18.83,-19.27,0,*7D
1529543237.48,23833,20.13,74580.5,6.01,-18.93,-19.41,0,*7D
1529543238.74,23834,20.13,74584.0,6.01,-18.99,-19.41,0,*70
1529543240.01,23835,20.13,74582.8,6.01,-19.13,-19.57,0,*75
1529543241.3,23836,20.19,74586.3,6.01,-19.23,-19.57,0,*75
1529543242.56,23837,20.13,74580.3,6.01,-18.99,-19.41,0,*73
1529543243.79,23838,20.19,74584.3,6.03,-18.83,-19.31,0,*72
1529543245.02,23839,20.13,74582.0,6.03,-18.83,-19.27,0,*74
1529543246.25,23840,20.13,74576.3,5.99,-18.73,-19.27,0,*75
1529543247.51,23841,20.13,74578.5,6.01,-18.83,-19.31,0,*7E
1529543248.74,23842,20.19,74582.5,6.03,-18.83,-19.27,0,*78
1529543250.02,23843,20.13,74576.8,6.01,-18.93,-19.23,0,*7E
1529543251.25,23844,20.13,74580.0,6.03,-18.83,-19.23,0,*7A
1529543252.45,23845,20.13,74578.8,6.03,-18.69,-19.07,0,*79
1529543253.68,23846,20.19,74582.0,6.03,-18.79,-19.23,0,*7D
1529543254.94,23847,20.19,74580.3,6.05,-18.93,-19.37,0,*7B
1529543256.2,23848,20.13,74578.0,6.01,-18.99,-19.27,0,*7B
1529543257.46,23849,20.13,74580.5,6.03,-18.93,-19.31,0,*75
1529543258.69,23850,20.13,74578.5,6.03,-18.99,-19.41,0,*70
1529543259.94,23851,20.19,74582.0,6.05,-18.79,-19.23,0,*7D
1529543261.2,23852,20.19,74584.3,6.01,-18.99,-19.41,0,*70
1529543262.48,23853,20.13,74580.5,6.05,-18.93,-19.27,0,*7F
1529543263.74,23854,20.19,74580.0,6.05,-19.03,-19.41,0,*70
1529543265.03,23855,20.13,74582.5,6.01,-19.23,-19.57,0,*70
1529543266.31,23856,20.19,74582.8,6.05,-18.89,-19.31,0,*76
1529543267.56,23857,20.13,74582.8,6.05,-19.03,-19.27,0,*73
1529543268.8,23858,20.13,74580.8,6.03,-19.17,-19.41,0,*7F
1529543270.03,23859,20.13,74580.3,6.03,-19.07,-19.41,0,*7F
1529543271.29,23860,20.13,74582.5,6.03,-18.93,-19.31,0,*7E
1529543272.52,23861,20.13,74582.3,6.03,-19.07,-19.41,0,*74
1529543273.76,23862,20.13,74582.3,6.01,-19.13,-19.47,0,*76
1529543274.99,23863,20.13,74582.3,6.03,-19.07,-19.41,0,*76
1529543276.23,23864,20.19,74582.3,6.03,-18.99,-19.31,0,*70
1529543277.48,23865,20.13,74582.3,6.05,-18.89,-19.37,0,*70
1529543278.76,23866,20.13,74580.3,6.01,-18.93,-19.27,0,*7D
1529543280.0,23867,20.19,74586.8,6.03,-19.07,-19.41,0,*72
1529543281.26,23868,20.13,74586.5,6.05,-19.23,-19.51,0,*7C
1529543282.52,23869,20.13,74582.0,6.03,-19.27,-19.61,0,*7C
1529543283.78,23870,20.13,74582.5,6.01,-19.23,-19.71,0,*73
1529543285.04,23871,20.19,74584.8,6.03,-19.23,-19.61,0,*71
1529543286.31,23872,20.13,74584.0,6.03,-19.27,-19.61,0,*76
1529543287.6,23873,20.13,74580.3,6.01,-19.23,-19.61,0,*71
1529543288.86,23874,20.13,74584.0,6.01,-19.31,-19.71,0,*74
1529543290.11,23875,20.13,74582.5,6.01,-19.23,-19.71,0,*76
1529543291.38,23876,20.13,74584.5,6.01,-19.13,-19.57,0,*72
1529543292.68,23877,20.13,74582.3,6.01,-19.23,-19.57,0,*70
1529543293.91,23878,20.13,74580.0,6.01,-19.07,-19.47,0,*78
1529543295.14,23879,20.13,74584.0,6.03,-19.07,-19.41,0,*7D
1529543296.37,23880,20.13,74584.8,6.01,-19.07,-19.47,0,*7F
1529543297.65,23881,20.13,74582.8,6.01,-19.23,-19.61,0,*7C
1529543298.94,23882,20.13,74580.5,6.01,-19.23,-19.61,0,*7F
1529543300.18,23883,20.13,74580.0,6.01,-19.13,-19.47,0,*79
1529543301.45,23884,20.13,74586.0,6.01,-19.13,-19.57,0,*7F
1529543302.68,23885,20.13,74586.3,6.01,-19.13,-19.47,0,*7F